This is the latest recevied weather packets stored in our database for station/object KI6SYE. If no packets are shown the sender has not sent any weather packets the latest 10 day(s).
| Time | Temp. | Humidity | Pressure | Rain* | Wind** | Luminosity | Snow |
|---|---|---|---|---|---|---|---|
| 1778121194 | 16.67° C | 85% | 1016.2 hPa | 0 mm | - | 8 W/m² | - |
| 1778120890 | 16.67° C | 85% | 1016 hPa | 0 mm | - | 11 W/m² | - |
| 1778120587 | 16.67° C | 83% | 1016.1 hPa | 0 mm | - | 14 W/m² | - |
| 1778120283 | 16.67° C | 83% | 1016.2 hPa | 0 mm | - | 18 W/m² | - |
| 1778119979 | 16.67° C | 82% | 1015.9 hPa | 0 mm | - | 22 W/m² | - |
| 1778119677 | 17.22° C | 81% | 1015.9 hPa | 0 mm | - | 30 W/m² | - |
| 1778119373 | 16.67° C | 82% | 1016 hPa | 0 mm | - | 32 W/m² | - |
| 1778119071 | 16.67° C | 83% | 1015.9 hPa | 0 mm | - | 36 W/m² | - |
| 1778118768 | 17.22° C | 82% | 1015.9 hPa | 0 mm | - | 42 W/m² | - |
| 1778118465 | 17.22° C | 82% | 1016 hPa | 0 mm | - | 49 W/m² | - |
| 1778118161 | 17.22° C | 81% | 1016.1 hPa | 0 mm | - | 57 W/m² | - |
| 1778117858 | 17.78° C | 81% | 1015.9 hPa | 0 mm | - | 65 W/m² | - |
| 1778117556 | 17.22° C | 82% | 1016.1 hPa | 0 mm | - | 45 W/m² | - |
| 1778117252 | 17.22° C | 82% | 1016 hPa | 0 mm | - | 43 W/m² | - |
| 1778116948 | 16.67° C | 84% | 1015.9 hPa | 0 mm | - | 45 W/m² | - |
| 1778116646 | 17.22° C | 82% | 1015.8 hPa | 0 mm | - | 46 W/m² | - |
| 1778116342 | 17.22° C | 82% | 1015.9 hPa | 0 mm | - | 54 W/m² | - |
| 1778116041 | 17.78° C | 82% | 1015.9 hPa | 0 mm | - | 63 W/m² | - |
| 1778115738 | 17.22° C | 82% | 1015.9 hPa | 0 mm | - | 52 W/m² | - |
| 1778115435 | 17.78° C | 82% | 1015.9 hPa | 0 mm | - | 52 W/m² | - |
| 1778115131 | 17.22° C | 83% | 1015.8 hPa | 0 mm | - | 55 W/m² | - |
| 1778114828 | 17.78° C | 81% | 1015.7 hPa | 0 mm | - | 107 W/m² | - |
| 1778114526 | 17.78° C | 81% | 1015.9 hPa | 0 mm | - | 183 W/m² | - |
| 1778114222 | 17.78° C | 80% | 1015.9 hPa | 0 mm | - | 204 W/m² | - |
| 1778113917 | 17.78° C | 80% | 1016 hPa | 0 mm | - | 218 W/m² | - |
* Rain latest hour (hover to see other rain measurements)
** Current wind speed in m/s (hover to see current wind gust speed)